| time (UTC) | temp C | wind direction | speed KPH | gust KPH | rain 1hr cm | rain 24hr cm | rain mn cm | humidity % | barometer mb |
| 20260505071556 | 17 | 255 | 8.0 | 17.7 | 0.00 | 0.00 | 0.00 | 75 | 1006.0 |
| 20260505070056 | 17 | 220 | 8.0 | 19.3 | 0.00 | 0.00 | 0.00 | 74 | 1006.0 |
| 20260505064603 | 17 | 191 | 9.7 | 17.7 | 0.00 | 0.00 | 0.00 | 75 | 1006.0 |
| 20260505063059 | 17 | 212 | 11.3 | 22.5 | 0.00 | 0.00 | 0.00 | 75 | 1006.1 |
| 20260505061628 | 16 | 255 | 11.3 | 19.3 | 0.00 | 0.00 | 0.00 | 74 | 1006.0 |
| 20260505060059 | 17 | 217 | 11.3 | 22.5 | 0.00 | 0.00 | 0.00 | 74 | 1005.8 |
| 20260505054614 | 17 | 256 | 12.9 | 19.3 | 0.00 | 0.00 | 0.00 | 74 | 1006.1 |
| 20260505053112 | 17 | 233 | 9.7 | 22.5 | 0.00 | 0.00 | 0.00 | 74 | 1006.5 |
| 20260505051611 | 17 | 245 | 14.5 | 27.4 | 0.00 | 0.00 | 0.00 | 73 | 1005.9 |
| 20260505050111 | 17 | 241 | 11.3 | 22.5 | 0.00 | 0.00 | 0.00 | 74 | 1006.0 |
| 20260505041602 | 17 | 231 | 12.9 | 22.5 | 0.00 | 0.00 | 0.00 | 73 | 1006.8 |
| 20260505040103 | 17 | 243 | 11.3 | 20.9 | 0.00 | 0.00 | 0.00 | 73 | 1007.0 |
| 20260505034559 | 17 | 248 | 11.3 | 19.3 | 0.00 | 0.00 | 0.00 | 72 | 1007.1 |
| 20260505033102 | 17 | 163 | 11.3 | 20.9 | 0.00 | 0.00 | 0.00 | 72 | 1007.3 |
| 20260505031556 | 17 | 158 | 6.4 | 17.7 | 0.00 | 0.00 | 0.00 | 71 | 1007.5 |
| 20260505030053 | 18 | 238 | 8.0 | 17.7 | 0.00 | 0.00 | 0.00 | 70 | 1007.3 |
| 20260505024609 | 18 | 257 | 8.0 | 16.1 | 0.00 | 0.00 | 0.00 | 69 | 1007.2 |
| 20260505023052 | 18 | 202 | 8.0 | 16.1 | 0.00 | 0.00 | 0.00 | 69 | 1006.9 |
| 20260505021611 | 18 | 196 | 8.0 | 16.1 | 0.00 | 0.00 | 0.00 | 68 | 1006.8 |
| 20260505020053 | 18 | 233 | 8.0 | 16.1 | 0.00 | 0.00 | 0.00 | 67 | 1006.4 |
| 20260505014558 | 19 | 224 | 9.7 | 16.1 | 0.00 | 0.00 | 0.00 | 67 | 1006.1 |
| 20260505013052 | 19 | 211 | 6.4 | 16.1 | 0.00 | 0.00 | 0.00 | 65 | 1005.9 |
| 20260505011558 | 20 | 234 | 6.4 | 14.5 | 0.00 | 0.00 | 0.00 | 64 | 1005.9 |
| 20260505010055 | 20 | 230 | 4.8 | 16.1 | 0.00 | 0.00 | 0.00 | 63 | 1005.8 |
| 20260505004553 | 21 | 262 | 6.4 | 14.5 | 0.00 | 0.00 | 0.00 | 62 | 1005.6 |
| 20260505003058 | 21 | 240 | 6.4 | 20.9 | 0.00 | 0.00 | 0.00 | 60 | 1005.5 |
| 20260505001556 | 22 | 231 | 9.7 | 19.3 | 0.00 | 0.00 | 0.00 | 57 | 1005.5 |
| 20260505000058 | 23 | 225 | 14.5 | 24.1 | 0.00 | 0.00 | 0.00 | 54 | 1005.6 |
| 20260504234556 | 23 | 257 | 11.3 | 17.7 | 0.00 | 0.00 | 0.00 | 55 | 1005.6 |
| 20260504233101 | 24 | 289 | 12.9 | 22.5 | 0.00 | 0.00 | 0.00 | 55 | 1005.6 |
| 20260504231554 | 24 | 243 | 8.0 | 20.9 | 0.00 | 0.00 | 0.00 | 55 | 1005.7 |
| 20260504230056 | 24 | 222 | 11.3 | 20.9 | 0.00 | 0.00 | 0.00 | 54 | 1005.7 |
| 20260504224555 | 24 | 276 | 14.5 | 30.6 | 0.00 | 0.00 | 0.00 | 55 | 1005.7 |
| 20260504223102 | 24 | 229 | 14.5 | 24.1 | 0.00 | 0.00 | 0.00 | 54 | 1005.8 |
| 20260504221605 | 24 | 229 | 11.3 | 24.1 | 0.00 | 0.00 | 0.00 | 54 | 1005.9 |
| 20260504220129 | 23 | 234 | 12.9 | 29.0 | 0.00 | 0.00 | 0.00 | 56 | 1005.9 |
| 20260504214555 | 24 | 245 | 16.1 | 30.6 | 0.00 | 0.00 | 0.00 | 52 | 1006.0 |
| 20260504213123 | 25 | 254 | 11.3 | 32.2 | 0.00 | 0.00 | 0.00 | 50 | 1006.3 |
| 20260504211554 | 24 | 287 | 17.7 | 30.6 | 0.00 | 0.00 | 0.00 | 54 | 1006.2 |
| 20260504204618 | 24 | 293 | 16.1 | 35.4 | 0.00 | 0.00 | 0.00 | 56 | 1006.6 |
| 20260504203056 | 24 | 260 | 19.3 | 30.6 | 0.00 | 0.00 | 0.00 | 56 | 1006.7 |
| 20260504201612 | 24 | 259 | 16.1 | 32.2 | 0.00 | 0.00 | 0.00 | 54 | 1006.8 |
| 20260504200108 | 25 | 239 | 16.1 | 29.0 | 0.00 | 0.00 | 0.00 | 57 | 1007.1 |
| 20260504194554 | 24 | 237 | 19.3 | 29.0 | 0.00 | 0.00 | 0.00 | 52 | 1007.1 |
| 20260504193059 | 24 | 248 | 16.1 | 32.2 | 0.00 | 0.00 | 0.00 | 53 | 1007.2 |
| 20260504191556 | 24 | 198 | 17.7 | 33.8 | 0.00 | 0.00 | 0.00 | 55 | 1007.3 |
| 20260504190057 | 24 | 277 | 16.1 | 29.0 | 0.00 | 0.00 | 0.00 | 57 | 1007.4 |
| 20260504184600 | 24 | 295 | 16.1 | 32.2 | 0.00 | 0.00 | 0.00 | 56 | 1007.4 |
| 20260504183105 | 24 | 252 | 19.3 | 38.6 | 0.00 | 0.00 | 0.00 | 54 | 1007.5 |
| 20260504181606 | 23 | 259 | 19.3 | 30.6 | 0.00 | 0.00 | 0.00 | 55 | 1007.4 |
| 20260504180100 | 23 | 250 | 19.3 | 40.2 | 0.00 | 0.00 | 0.00 | 57 | 1007.6 |
| 20260504174559 | 23 | 245 | 19.3 | 37.0 | 0.00 | 0.00 | 0.00 | 58 | 1007.9 |
| 20260504173102 | 23 | 307 | 22.5 | 35.4 | 0.00 | 0.00 | 0.00 | 60 | 1007.8 |
| 20260504171606 | 23 | 195 | 14.5 | 32.2 | 0.00 | 0.00 | 0.00 | 59 | 1007.8 |
| 20260504100103 | 14 | 263 | 6.4 | 17.7 | 0.00 | 0.00 | 0.00 | 69 | 1009.9 |
| 20260504081555 | 15 | 249 | 6.4 | 14.5 | 0.00 | 0.00 | 0.00 | 68 | 1010.2 |
| 20260504080107 | 15 | 238 | 9.7 | 16.1 | 0.00 | 0.00 | 0.00 | 67 | 1010.4 |